Regional Weather Roundup
Issued by NWS Huntsville, AL

Home | Current Version | Previous Version | Text Only | Print | Product List | Glossary On
Versions: 1 2 3 4 5 6 7 8 9 10 11 12 13 14 15 16 17 18 19 20 21 22 23 24 25 26 27 28 29 30 31 32 33 34 35 36 37 38 39 40 41 42 43 44 45 46 47 48 49 50
000
ASUS44 KHUN 061110
RWRHUN

WEATHER ROUNDUP FOR THE TENNESSEE VALLEY
NATIONAL WEATHER SERVICE HUNTSVILLE AL
500 AM CST FRI MAR 06 2015

ALZ001>004-061200-
NORTHWEST ALABAMA

CITY           SKY/WX    TMP DP  RH WIND       PRES   REMARKS
SHOALS AIRPORT PTCLDY    18   9  68 N6        30.54S WCI  10
SHOALS TVA RES   N/A     16 N/A N/A MISG        N/A
$$

ALZ005>007-016-061200-
NORTH CENTRAL ALABAMA

CITY           SKY/WX    TMP DP  RH WIND       PRES   REMARKS
DECATUR AP     PTCLDY    16  11  80 N8        30.51R WCI   5
HUNTSVILLE AP  PTCLDY    17  11  77 N3        30.49S
HUN NWS/UAH      N/A     16  11  78 N5          N/A  WCI   9
MERIDIANVILLE  PTCLDY    18  10  73 N7        30.48S WCI   8
REDSTONE ARSN  PTCLDY    15  12  86 N12       30.47S WCI   2
VINEMONT AP    FAIR      15  11  85 N7        30.45S WCI   5
$$

ALZ008>010-061200-
NORTHEAST ALABAMA

CITY           SKY/WX    TMP DP  RH WIND       PRES   REMARKS
ALBERTVILLE    CLEAR     19  19 100 N8        30.41R WCI   9
FORT PAYNE     CLEAR     21  12  68 N6        30.42R WCI  14
SCOTTSBORO AP  CLEAR     19  14  79 NE7       30.47R WCI  10
SCOTTSBORO HCN   N/A     19 N/A N/A MISG        N/A
VALLEY HEAD      N/A     19 N/A N/A MISG        N/A
$$

TNZ076-096-097-061200-
SOUTHEASTERN MIDDLE TENNESSEE

CITY           SKY/WX    TMP DP  RH WIND       PRES   REMARKS
TULLAHOMA      CLEAR     10   7  85 N5          N/A  WCI   2
WINCHESTER     CLEAR     14  12  92 CALM      30.47S
$$

...SURROUNDING SITES...

CITY           SKY/WX    TMP DP  RH WIND       PRES   REMARKS
ATLANTA        CLOUDY    28  22  78 N9        30.35R WCI  19
ANNISTON       MOCLDY    23  16  74 VRB3      30.43R
BIRMINGHAM     PTCLDY    19  15  84 N8        30.46R WCI   9
CHATTANOOGA    MOCLDY    23  12  62 N12       30.47R WCI  12
CORINTH        FAIR      18   9  68 NE5       30.56R WCI  11
DALTON         MOCLDY    23  19  86 N10G16    30.43R WCI  12
GADSDEN        PTCLDY    21  12  68 N8        30.43R WCI  12
GOLDEN TRNGL   CLEAR     21  12  68 N9        30.52R WCI  11
HALEYVILLE       N/A     13  10  87 N5        30.49R WCI   5
JACKSON TN     PTCLDY     8   3  80 CALM      30.58R
LEWISBURG      FAIR      11   6  80 CALM      30.52R
MEMPHIS        PTCLDY    17   8  67 NE6       30.58R WCI   9
MURFREESBORO   FAIR      10   7  88 CALM      30.53S
NASHVILLE      PTCLDY    11   6  81 NW5       30.56R WCI   3
OXFORD MS      FAIR      14  10  85 N3        30.58R
ROME           CLOUDY    24  16  71 N12       30.43R WCI  13
SAVANNAH       CLEAR     12   7  79 CALM      30.56R
TUPELO         CLEAR     19  10  68 NE12      30.56R WCI   7
TUSCALOOSA     CLEAR     22  15  75 N9        30.50R WCI  12
$$

...GULF COAST WEATHER...

CITY           SKY/WX    TMP DP  RH WIND       PRES   REMARKS
GULFPORT       PTCLDY    29  17  61 N12       30.41R WCI  19
PASCAGOULA     PTCLDY    29  19  66 N14       30.40R WCI  18
MOBILE         PTCLDY    27  19  72 N18G24    30.40R WCI  14
GULF SHORES    SUNNY     29  22  74 N15G21    30.36R WCI  18
PENSACOLA      CLEAR     30  23  75 N12       30.35R WCI  20
DESTIN         PTCLDY    34  26  72 N16G24    30.33R WCI  24
PANAMA CITY    MOCLDY    39  32  76 N9        30.28R WCI  33
APPALACHICOLA  CLEAR     44  34  67 N21       30.24R
$$



USA.gov is the U.S. government's official web portal to all federal, state and local government web resources and services.